Weather History for Kejimkujik, NS

Change the Weather History Date:

Wednesday, December 5, 2012

  Actual Average Record
Temperature  
Mean Temperature 44 °F -  
Max Temperature 53 °F - - ()
Min Temperature 36 °F - - ()
Degree Days  
Heating Degree Days 20    
Moisture  
Dew Point 43 °F    
Average Humidity 94    
Maximum Humidity 98    
Minimum Humidity 87    
Precipitation  
Precipitation 0.00 in - - ()
Sea Level Pressure  
Sea Level Pressure 30.03 in    
Wind  
Wind Speed 5 mph ()    
Max Wind Speed 9 mph    
Max Gust Speed 21 mph    
T = Trace of Precipitation, MM = Missing Value Source: Averaged Metar Reports

Daily Weather History Graph

Daily Weather History Graph

Search for Another Location

Airport:

Trip Planner

Search our weather history database for the weather conditions in past years. The results will help you decide how hot, cold, wet, or windy it might be!

Date:

Astronomy

Dec. 05, 2012 Rise Set
Actual Time 7:41 AM AST 4:41 PM AST
Civil Twilight 7:08 AM AST 5:14 PM AST
Nautical Twilight 6:32 AM AST 5:50 PM AST
Astronomical Twilight 5:57 AM AST 6:26 PM AST
Moon 11:38 PM AST (12/5) 11:52 AM AST (12/5)
Length of Visible Light 10h 05m
Length of Day
8h 59m
Waning Gibbous, 60% of the Moon is Illuminated
Dec 5
Waning Gibbous
Dec 6
Last Quarter
Dec 13
New
Dec 20
First Quarter
Dec 28
Full

Hourly Weather History & Observations

Time (AST) Temp. Windchill Dew Point Humidity Pressure Visibility Wind Dir Wind Speed Gust Speed Precip Events Conditions
12:00 AM 39.4 °F 34.5 °F 37.0 °F 91% 30.29 in - SW 6.9 mph - N/A   Unknown
1:00 AM 39.9 °F 35.8 °F 37.8 °F 92% 30.27 in - SW 5.8 mph - N/A   Unknown
2:00 AM 41 °F - 39 °F 89% 30.25 in - SW 6.9 mph - -  
2:00 AM 41.0 °F 36.4 °F 38.8 °F 92% 30.25 in - SW 6.9 mph - N/A   Unknown
3:00 AM 41.7 °F 38.0 °F 39.6 °F 92% 30.22 in - SW 5.8 mph - N/A   Unknown
4:00 AM 42.4 °F 39.6 °F 40.3 °F 92% 30.19 in - SW 4.6 mph - N/A   Unknown
5:00 AM 42.8 °F 38.6 °F 41.0 °F 93% 30.17 in - SW 6.9 mph - N/A   Unknown
6:00 AM 43.2 °F 39.7 °F 41.5 °F 94% 30.13 in - SW 5.8 mph - N/A   Unknown
7:00 AM 44.1 °F 41.5 °F 42.4 °F 94% 30.11 in - SSW 4.6 mph - N/A   Unknown
8:00 AM 45 °F - 44 °F 92% 30.07 in - SW 5.8 mph - -  
8:00 AM 45.1 °F 42.0 °F 43.5 °F 94% 30.07 in - SW 5.8 mph - N/A   Unknown
11:00 AM 50.4 °F - 46.6 °F 87% 29.97 in - SW 9.2 mph 20.7 mph N/A   Unknown
12:00 PM 51.6 °F - 48.9 °F 90% 29.91 in - WSW 8.1 mph - N/A   Unknown
1:00 PM 52.3 °F - 51.3 °F 96% 29.88 in - WSW 8.1 mph 17.3 mph N/A   Unknown
2:00 PM 53 °F - 52 °F 93% 29.86 in - West 8.1 mph - -  
2:00 PM 52.5 °F - 51.6 °F 97% 29.86 in - West 8.1 mph 18.4 mph N/A   Unknown
3:00 PM 48.6 °F - 47.3 °F 95% 29.88 in - NNW 6.9 mph - N/A   Unknown
4:00 PM 47.3 °F - 46.2 °F 96% 29.89 in - North 3.5 mph - N/A   Unknown
5:00 PM 45.3 °F - 44.4 °F 97% 29.89 in - North 2.3 mph - N/A   Unknown
6:00 PM 43.9 °F - 43.2 °F 97% 29.91 in - NNW 2.3 mph - N/A   Unknown
7:00 PM 43.2 °F 41.5 °F 42.6 °F 98% 29.91 in - North 3.5 mph - N/A   Unknown
8:00 PM 41 °F - 40 °F 97% 29.94 in - North 3.5 mph - -  
8:00 PM 41.0 °F 39.0 °F 40.5 °F 98% 29.94 in - North 3.5 mph - N/A   Unknown
10:00 PM 36.9 °F 34.3 °F 36.3 °F 98% 29.94 in - North 3.5 mph - N/A   Unknown
11:00 PM 36.3 °F 33.7 °F 35.6 °F 97% 29.94 in - North 3.5 mph - N/A   Unknown